Index of /20260417/WXO-DD/model_rdps/10km/18/001
Name Last modified Size Description
Parent Directory -
20260417T18Z_MSC_RDPS_AbsoluteVorticity_IsbL-0250_RLatLon0.09_PT001H.grib2 2026-04-17 20:40 593K
20260417T18Z_MSC_RDPS_AbsoluteVorticity_IsbL-0500_RLatLon0.09_PT001H.grib2 2026-04-17 20:40 671K
20260417T18Z_MSC_RDPS_AbsoluteVorticity_IsbL-0700_RLatLon0.09_PT001H.grib2 2026-04-17 20:40 601K
20260417T18Z_MSC_RDPS_AbsoluteVorticity_IsbL-0850_RLatLon0.09_PT001H.grib2 2026-04-17 20:40 770K
20260417T18Z_MSC_RDPS_AirTemp_AGL-120m_RLatLon0.09_PT001H.grib2 2026-04-17 20:40 394K
20260417T18Z_MSC_RDPS_AirTemp_AGL-2m_RLatLon0.09_PT001H.grib2 2026-04-17 20:40 626K
20260417T18Z_MSC_RDPS_AirTemp_AGL-40m_RLatLon0.09_PT001H.grib2 2026-04-17 20:40 402K
20260417T18Z_MSC_RDPS_AirTemp_AGL-80m_RLatLon0.09_PT001H.grib2 2026-04-17 20:40 398K
20260417T18Z_MSC_RDPS_AirTemp_IsbL-0001_RLatLon0.09_PT001H.grib2 2026-04-17 20:40 319K
20260417T18Z_MSC_RDPS_AirTemp_IsbL-0005_RLatLon0.09_PT001H.grib2 2026-04-17 20:40 320K
20260417T18Z_MSC_RDPS_AirTemp_IsbL-0010_RLatLon0.09_PT001H.grib2 2026-04-17 20:40 325K
20260417T18Z_MSC_RDPS_AirTemp_IsbL-0020_RLatLon0.09_PT001H.grib2 2026-04-17 20:40 302K
20260417T18Z_MSC_RDPS_AirTemp_IsbL-0030_RLatLon0.09_PT001H.grib2 2026-04-17 20:40 357K
20260417T18Z_MSC_RDPS_AirTemp_IsbL-0050_RLatLon0.09_PT001H.grib2 2026-04-17 20:40 306K
20260417T18Z_MSC_RDPS_AirTemp_IsbL-0100_RLatLon0.09_PT001H.grib2 2026-04-17 20:40 369K
20260417T18Z_MSC_RDPS_AirTemp_IsbL-0150_RLatLon0.09_PT001H.grib2 2026-04-17 20:40 384K
20260417T18Z_MSC_RDPS_AirTemp_IsbL-0175_RLatLon0.09_PT001H.grib2 2026-04-17 20:40 387K
20260417T18Z_MSC_RDPS_AirTemp_IsbL-0200_RLatLon0.09_PT001H.grib2 2026-04-17 20:40 398K
20260417T18Z_MSC_RDPS_AirTemp_IsbL-0225_RLatLon0.09_PT001H.grib2 2026-04-17 20:40 403K
20260417T18Z_MSC_RDPS_AirTemp_IsbL-0250_RLatLon0.09_PT001H.grib2 2026-04-17 20:40 411K
20260417T18Z_MSC_RDPS_AirTemp_IsbL-0275_RLatLon0.09_PT001H.grib2 2026-04-17 20:40 394K
20260417T18Z_MSC_RDPS_AirTemp_IsbL-0300_RLatLon0.09_PT001H.grib2 2026-04-17 20:40 399K
20260417T18Z_MSC_RDPS_AirTemp_IsbL-0350_RLatLon0.09_PT001H.grib2 2026-04-17 20:40 411K
20260417T18Z_MSC_RDPS_AirTemp_IsbL-0400_RLatLon0.09_PT001H.grib2 2026-04-17 20:40 376K
20260417T18Z_MSC_RDPS_AirTemp_IsbL-0450_RLatLon0.09_PT001H.grib2 2026-04-17 20:40 382K
20260417T18Z_MSC_RDPS_AirTemp_IsbL-0500_RLatLon0.09_PT001H.grib2 2026-04-17 20:40 395K
20260417T18Z_MSC_RDPS_AirTemp_IsbL-0550_RLatLon0.09_PT001H.grib2 2026-04-17 20:40 414K
20260417T18Z_MSC_RDPS_AirTemp_IsbL-0600_RLatLon0.09_PT001H.grib2 2026-04-17 20:40 432K
20260417T18Z_MSC_RDPS_AirTemp_IsbL-0650_RLatLon0.09_PT001H.grib2 2026-04-17 20:40 448K
20260417T18Z_MSC_RDPS_AirTemp_IsbL-0700_RLatLon0.09_PT001H.grib2 2026-04-17 20:40 371K
20260417T18Z_MSC_RDPS_AirTemp_IsbL-0750_RLatLon0.09_PT001H.grib2 2026-04-17 20:40 407K
20260417T18Z_MSC_RDPS_AirTemp_IsbL-0800_RLatLon0.09_PT001H.grib2 2026-04-17 20:40 455K
20260417T18Z_MSC_RDPS_AirTemp_IsbL-0850_RLatLon0.09_PT001H.grib2 2026-04-17 20:40 500K
20260417T18Z_MSC_RDPS_AirTemp_IsbL-0875_RLatLon0.09_PT001H.grib2 2026-04-17 20:40 516K
20260417T18Z_MSC_RDPS_AirTemp_IsbL-0900_RLatLon0.09_PT001H.grib2 2026-04-17 20:40 534K
20260417T18Z_MSC_RDPS_AirTemp_IsbL-0925_RLatLon0.09_PT001H.grib2 2026-04-17 20:40 535K
20260417T18Z_MSC_RDPS_AirTemp_IsbL-0950_RLatLon0.09_PT001H.grib2 2026-04-17 20:40 537K
20260417T18Z_MSC_RDPS_AirTemp_IsbL-0970_RLatLon0.09_PT001H.grib2 2026-04-17 20:40 530K
20260417T18Z_MSC_RDPS_AirTemp_IsbL-0985_RLatLon0.09_PT001H.grib2 2026-04-17 20:40 520K
20260417T18Z_MSC_RDPS_AirTemp_IsbL-1000_RLatLon0.09_PT001H.grib2 2026-04-17 20:40 506K
20260417T18Z_MSC_RDPS_AirTemp_IsbL-1015_RLatLon0.09_PT001H.grib2 2026-04-17 20:40 502K
20260417T18Z_MSC_RDPS_Albedo_Sfc_RLatLon0.09_PT001H.grib2 2026-04-17 20:40 169K
20260417T18Z_MSC_RDPS_CAPE_Sfc_RLatLon0.09_PT001H.grib2 2026-04-17 20:40 1.7M
20260417T18Z_MSC_RDPS_CIN_Sfc_RLatLon0.09_PT001H.grib2 2026-04-17 20:40 1.2M
20260417T18Z_MSC_RDPS_CloudWater_EAtm_RLatLon0.09_PT001H.grib2 2026-04-17 20:40 207K
20260417T18Z_MSC_RDPS_ConvectivePrecip-Accum_Sfc_RLatLon0.09_PT001H.grib2 2026-04-17 20:40 299K
20260417T18Z_MSC_RDPS_DewPointDepression_AGL-2m_RLatLon0.09_PT001H.grib2 2026-04-17 20:40 405K
20260417T18Z_MSC_RDPS_DewPointDepression_IsbL-0001_RLatLon0.09_PT001H.grib2 2026-04-17 20:40 193
20260417T18Z_MSC_RDPS_DewPointDepression_IsbL-0005_RLatLon0.09_PT001H.grib2 2026-04-17 20:40 193
20260417T18Z_MSC_RDPS_DewPointDepression_IsbL-0010_RLatLon0.09_PT001H.grib2 2026-04-17 20:40 193
20260417T18Z_MSC_RDPS_DewPointDepression_IsbL-0020_RLatLon0.09_PT001H.grib2 2026-04-17 20:40 193
20260417T18Z_MSC_RDPS_DewPointDepression_IsbL-0030_RLatLon0.09_PT001H.grib2 2026-04-17 20:40 8.1K
20260417T18Z_MSC_RDPS_DewPointDepression_IsbL-0050_RLatLon0.09_PT001H.grib2 2026-04-17 20:40 99K
20260417T18Z_MSC_RDPS_DewPointDepression_IsbL-0100_RLatLon0.09_PT001H.grib2 2026-04-17 20:40 118K
20260417T18Z_MSC_RDPS_DewPointDepression_IsbL-0150_RLatLon0.09_PT001H.grib2 2026-04-17 20:40 140K
20260417T18Z_MSC_RDPS_DewPointDepression_IsbL-0175_RLatLon0.09_PT001H.grib2 2026-04-17 20:40 173K
20260417T18Z_MSC_RDPS_DewPointDepression_IsbL-0200_RLatLon0.09_PT001H.grib2 2026-04-17 20:40 205K
20260417T18Z_MSC_RDPS_DewPointDepression_IsbL-0225_RLatLon0.09_PT001H.grib2 2026-04-17 20:40 240K
20260417T18Z_MSC_RDPS_DewPointDepression_IsbL-0250_RLatLon0.09_PT001H.grib2 2026-04-17 20:40 285K
20260417T18Z_MSC_RDPS_DewPointDepression_IsbL-0275_RLatLon0.09_PT001H.grib2 2026-04-17 20:40 294K
20260417T18Z_MSC_RDPS_DewPointDepression_IsbL-0300_RLatLon0.09_PT001H.grib2 2026-04-17 20:40 309K
20260417T18Z_MSC_RDPS_DewPointDepression_IsbL-0350_RLatLon0.09_PT001H.grib2 2026-04-17 20:40 310K
20260417T18Z_MSC_RDPS_DewPointDepression_IsbL-0400_RLatLon0.09_PT001H.grib2 2026-04-17 20:40 319K
20260417T18Z_MSC_RDPS_DewPointDepression_IsbL-0450_RLatLon0.09_PT001H.grib2 2026-04-17 20:40 324K
20260417T18Z_MSC_RDPS_DewPointDepression_IsbL-0500_RLatLon0.09_PT001H.grib2 2026-04-17 20:40 328K
20260417T18Z_MSC_RDPS_DewPointDepression_IsbL-0550_RLatLon0.09_PT001H.grib2 2026-04-17 20:40 340K
20260417T18Z_MSC_RDPS_DewPointDepression_IsbL-0600_RLatLon0.09_PT001H.grib2 2026-04-17 20:40 357K
20260417T18Z_MSC_RDPS_DewPointDepression_IsbL-0650_RLatLon0.09_PT001H.grib2 2026-04-17 20:40 368K
20260417T18Z_MSC_RDPS_DewPointDepression_IsbL-0700_RLatLon0.09_PT001H.grib2 2026-04-17 20:40 379K
20260417T18Z_MSC_RDPS_DewPointDepression_IsbL-0750_RLatLon0.09_PT001H.grib2 2026-04-17 20:40 405K
20260417T18Z_MSC_RDPS_DewPointDepression_IsbL-0800_RLatLon0.09_PT001H.grib2 2026-04-17 20:40 444K
20260417T18Z_MSC_RDPS_DewPointDepression_IsbL-0850_RLatLon0.09_PT001H.grib2 2026-04-17 20:40 467K
20260417T18Z_MSC_RDPS_DewPointDepression_IsbL-0875_RLatLon0.09_PT001H.grib2 2026-04-17 20:40 463K
20260417T18Z_MSC_RDPS_DewPointDepression_IsbL-0900_RLatLon0.09_PT001H.grib2 2026-04-17 20:40 455K
20260417T18Z_MSC_RDPS_DewPointDepression_IsbL-0925_RLatLon0.09_PT001H.grib2 2026-04-17 20:40 442K
20260417T18Z_MSC_RDPS_DewPointDepression_IsbL-0950_RLatLon0.09_PT001H.grib2 2026-04-17 20:40 437K
20260417T18Z_MSC_RDPS_DewPointDepression_IsbL-0970_RLatLon0.09_PT001H.grib2 2026-04-17 20:40 431K
20260417T18Z_MSC_RDPS_DewPointDepression_IsbL-0985_RLatLon0.09_PT001H.grib2 2026-04-17 20:40 426K
20260417T18Z_MSC_RDPS_DewPointDepression_IsbL-1000_RLatLon0.09_PT001H.grib2 2026-04-17 20:40 422K
20260417T18Z_MSC_RDPS_DewPointDepression_IsbL-1015_RLatLon0.09_PT001H.grib2 2026-04-17 20:40 415K
20260417T18Z_MSC_RDPS_DewPoint_AGL-2m_RLatLon0.09_PT001H.grib2 2026-04-17 20:40 394K
20260417T18Z_MSC_RDPS_DownwardLongwaveRadiationFlux-Accum_Sfc_RLatLon0.09_PT001H.grib2 2026-04-17 20:40 540K
20260417T18Z_MSC_RDPS_DownwardShortwaveRadiationFlux-Accum_NTAtm_RLatLon0.09_PT001H.grib2 2026-04-17 20:40 102K
20260417T18Z_MSC_RDPS_DownwardShortwaveRadiationFlux-Accum_Sfc_RLatLon0.09_PT001H.grib2 2026-04-17 20:40 636K
20260417T18Z_MSC_RDPS_FreezingRain-Accum1h_Sfc_RLatLon0.09_PT001H.grib2 2026-04-17 20:40 15K
20260417T18Z_MSC_RDPS_FreezingRain-Accum_Sfc_RLatLon0.09_PT001H.grib2 2026-04-17 20:40 18K
20260417T18Z_MSC_RDPS_GeopotentialHeight_IsbL-0001_RLatLon0.09_PT001H.grib2 2026-04-17 20:40 212K
20260417T18Z_MSC_RDPS_GeopotentialHeight_IsbL-0005_RLatLon0.09_PT001H.grib2 2026-04-17 20:40 264K
20260417T18Z_MSC_RDPS_GeopotentialHeight_IsbL-0010_RLatLon0.09_PT001H.grib2 2026-04-17 20:40 304K
20260417T18Z_MSC_RDPS_GeopotentialHeight_IsbL-0020_RLatLon0.09_PT001H.grib2 2026-04-17 20:40 332K
20260417T18Z_MSC_RDPS_GeopotentialHeight_IsbL-0030_RLatLon0.09_PT001H.grib2 2026-04-17 20:40 334K
20260417T18Z_MSC_RDPS_GeopotentialHeight_IsbL-0050_RLatLon0.09_PT001H.grib2 2026-04-17 20:40 307K
20260417T18Z_MSC_RDPS_GeopotentialHeight_IsbL-0100_RLatLon0.09_PT001H.grib2 2026-04-17 20:40 286K
20260417T18Z_MSC_RDPS_GeopotentialHeight_IsbL-0150_RLatLon0.09_PT001H.grib2 2026-04-17 20:40 260K
20260417T18Z_MSC_RDPS_GeopotentialHeight_IsbL-0175_RLatLon0.09_PT001H.grib2 2026-04-17 20:40 262K
20260417T18Z_MSC_RDPS_GeopotentialHeight_IsbL-0200_RLatLon0.09_PT001H.grib2 2026-04-17 20:40 264K
20260417T18Z_MSC_RDPS_GeopotentialHeight_IsbL-0225_RLatLon0.09_PT001H.grib2 2026-04-17 20:40 266K
20260417T18Z_MSC_RDPS_GeopotentialHeight_IsbL-0250_RLatLon0.09_PT001H.grib2 2026-04-17 20:40 268K
20260417T18Z_MSC_RDPS_GeopotentialHeight_IsbL-0275_RLatLon0.09_PT001H.grib2 2026-04-17 20:40 266K
20260417T18Z_MSC_RDPS_GeopotentialHeight_IsbL-0300_RLatLon0.09_PT001H.grib2 2026-04-17 20:40 265K
20260417T18Z_MSC_RDPS_GeopotentialHeight_IsbL-0350_RLatLon0.09_PT001H.grib2 2026-04-17 20:40 230K
20260417T18Z_MSC_RDPS_GeopotentialHeight_IsbL-0400_RLatLon0.09_PT001H.grib2 2026-04-17 20:40 226K
20260417T18Z_MSC_RDPS_GeopotentialHeight_IsbL-0450_RLatLon0.09_PT001H.grib2 2026-04-17 20:40 293K
20260417T18Z_MSC_RDPS_GeopotentialHeight_IsbL-0500_RLatLon0.09_PT001H.grib2 2026-04-17 20:40 287K
20260417T18Z_MSC_RDPS_GeopotentialHeight_IsbL-0550_RLatLon0.09_PT001H.grib2 2026-04-17 20:40 283K
20260417T18Z_MSC_RDPS_GeopotentialHeight_IsbL-0600_RLatLon0.09_PT001H.grib2 2026-04-17 20:40 281K
20260417T18Z_MSC_RDPS_GeopotentialHeight_IsbL-0650_RLatLon0.09_PT001H.grib2 2026-04-17 20:40 280K
20260417T18Z_MSC_RDPS_GeopotentialHeight_IsbL-0700_RLatLon0.09_PT001H.grib2 2026-04-17 20:40 251K
20260417T18Z_MSC_RDPS_GeopotentialHeight_IsbL-0750_RLatLon0.09_PT001H.grib2 2026-04-17 20:40 254K
20260417T18Z_MSC_RDPS_GeopotentialHeight_IsbL-0800_RLatLon0.09_PT001H.grib2 2026-04-17 20:40 344K
20260417T18Z_MSC_RDPS_GeopotentialHeight_IsbL-0850_RLatLon0.09_PT001H.grib2 2026-04-17 20:40 354K
20260417T18Z_MSC_RDPS_GeopotentialHeight_IsbL-0875_RLatLon0.09_PT001H.grib2 2026-04-17 20:40 355K
20260417T18Z_MSC_RDPS_GeopotentialHeight_IsbL-0900_RLatLon0.09_PT001H.grib2 2026-04-17 20:40 362K
20260417T18Z_MSC_RDPS_GeopotentialHeight_IsbL-0925_RLatLon0.09_PT001H.grib2 2026-04-17 20:40 365K
20260417T18Z_MSC_RDPS_GeopotentialHeight_IsbL-0950_RLatLon0.09_PT001H.grib2 2026-04-17 20:40 369K
20260417T18Z_MSC_RDPS_GeopotentialHeight_IsbL-0970_RLatLon0.09_PT001H.grib2 2026-04-17 20:40 376K
20260417T18Z_MSC_RDPS_GeopotentialHeight_IsbL-0985_RLatLon0.09_PT001H.grib2 2026-04-17 20:40 385K
20260417T18Z_MSC_RDPS_GeopotentialHeight_IsbL-1000_RLatLon0.09_PT001H.grib2 2026-04-17 20:40 398K
20260417T18Z_MSC_RDPS_GeopotentialHeight_IsbL-1015_RLatLon0.09_PT001H.grib2 2026-04-17 20:40 412K
20260417T18Z_MSC_RDPS_Humidex_Sfc_RLatLon0.09_PT001H.grib2 2026-04-17 20:40 2.4M
20260417T18Z_MSC_RDPS_IcePellets-Accum1h_Sfc_RLatLon0.09_PT001H.grib2 2026-04-17 20:40 8.2K
20260417T18Z_MSC_RDPS_IcePellets-Accum_Sfc_RLatLon0.09_PT001H.grib2 2026-04-17 20:40 8.8K
20260417T18Z_MSC_RDPS_KIndex_Sfc_RLatLon0.09_PT001H.grib2 2026-04-17 20:40 2.4M
20260417T18Z_MSC_RDPS_LatentHeatNetFlux_Sfc_RLatLon0.09_PT001H.grib2 2026-04-17 20:40 288K
20260417T18Z_MSC_RDPS_LiftedIndex-MU-VT_IsbL-0500_RLatLon0.09_PT001H.grib2 2026-04-17 20:40 2.4M
20260417T18Z_MSC_RDPS_NetLongwaveRadiationFlux-Accum_Sfc_RLatLon0.09_PT001H.grib2 2026-04-17 20:40 559K
20260417T18Z_MSC_RDPS_NetShortwaveRadiationFlux-Accum_Sfc_RLatLon0.09_PT001H.grib2 2026-04-17 20:40 627K
20260417T18Z_MSC_RDPS_PlanetaryBoundaryLayerHeight_Sfc_RLatLon0.09_PT001H.grib2 2026-04-17 20:40 1.0M
20260417T18Z_MSC_RDPS_Precip-Accum1h_Sfc_RLatLon0.09_PT001H.grib2 2026-04-17 20:40 1.2M
20260417T18Z_MSC_RDPS_Precip-Accum_Sfc_RLatLon0.09_PT001H.grib2 2026-04-17 20:40 1.2M
20260417T18Z_MSC_RDPS_PrecipRate_Sfc_RLatLon0.09_PT001H.grib2 2026-04-17 20:40 120K
20260417T18Z_MSC_RDPS_PrecipType-Instant_Sfc_RLatLon0.09_PT001H.grib2 2026-04-17 20:40 543K
20260417T18Z_MSC_RDPS_Pressure_MSL_RLatLon0.09_PT001H.grib2 2026-04-17 20:40 298K
20260417T18Z_MSC_RDPS_Pressure_PVU-1.5_RLatLon0.09_PT001H.grib2 2026-04-17 20:40 2.4M
20260417T18Z_MSC_RDPS_Pressure_PVU-1_RLatLon0.09_PT001H.grib2 2026-04-17 20:40 2.3M
20260417T18Z_MSC_RDPS_Pressure_PVU-2_RLatLon0.09_PT001H.grib2 2026-04-17 20:40 2.3M
20260417T18Z_MSC_RDPS_Pressure_Sfc_RLatLon0.09_PT001H.grib2 2026-04-17 20:40 500K
20260417T18Z_MSC_RDPS_RadiativeTemp_Sfc_RLatLon0.09_PT001H.grib2 2026-04-17 20:40 326K
20260417T18Z_MSC_RDPS_Rain-Accum1h_Sfc_RLatLon0.09_PT001H.grib2 2026-04-17 20:40 482K
20260417T18Z_MSC_RDPS_Rain-Accum_Sfc_RLatLon0.09_PT001H.grib2 2026-04-17 20:40 749K
20260417T18Z_MSC_RDPS_RelativeHumidity_AGL-2m_RLatLon0.09_PT001H.grib2 2026-04-17 20:40 1.0M
20260417T18Z_MSC_RDPS_RelativeHumidity_IsbL-0010_RLatLon0.09_PT001H.grib2 2026-04-17 20:40 506K
20260417T18Z_MSC_RDPS_RelativeHumidity_IsbL-0020_RLatLon0.09_PT001H.grib2 2026-04-17 20:40 394K
20260417T18Z_MSC_RDPS_RelativeHumidity_IsbL-0030_RLatLon0.09_PT001H.grib2 2026-04-17 20:40 454K
20260417T18Z_MSC_RDPS_RelativeHumidity_IsbL-0050_RLatLon0.09_PT001H.grib2 2026-04-17 20:40 320K
20260417T18Z_MSC_RDPS_RelativeHumidity_IsbL-0100_RLatLon0.09_PT001H.grib2 2026-04-17 20:40 249K
20260417T18Z_MSC_RDPS_RelativeHumidity_IsbL-0150_RLatLon0.09_PT001H.grib2 2026-04-17 20:40 362K
20260417T18Z_MSC_RDPS_RelativeHumidity_IsbL-0175_RLatLon0.09_PT001H.grib2 2026-04-17 20:40 447K
20260417T18Z_MSC_RDPS_RelativeHumidity_IsbL-0200_RLatLon0.09_PT001H.grib2 2026-04-17 20:40 524K
20260417T18Z_MSC_RDPS_RelativeHumidity_IsbL-0225_RLatLon0.09_PT001H.grib2 2026-04-17 20:40 589K
20260417T18Z_MSC_RDPS_RelativeHumidity_IsbL-0250_RLatLon0.09_PT001H.grib2 2026-04-17 20:40 661K
20260417T18Z_MSC_RDPS_RelativeHumidity_IsbL-0275_RLatLon0.09_PT001H.grib2 2026-04-17 20:40 688K
20260417T18Z_MSC_RDPS_RelativeHumidity_IsbL-0300_RLatLon0.09_PT001H.grib2 2026-04-17 20:40 725K
20260417T18Z_MSC_RDPS_RelativeHumidity_IsbL-0350_RLatLon0.09_PT001H.grib2 2026-04-17 20:40 736K
20260417T18Z_MSC_RDPS_RelativeHumidity_IsbL-0400_RLatLon0.09_PT001H.grib2 2026-04-17 20:40 751K
20260417T18Z_MSC_RDPS_RelativeHumidity_IsbL-0450_RLatLon0.09_PT001H.grib2 2026-04-17 20:40 756K
20260417T18Z_MSC_RDPS_RelativeHumidity_IsbL-0500_RLatLon0.09_PT001H.grib2 2026-04-17 20:40 776K
20260417T18Z_MSC_RDPS_RelativeHumidity_IsbL-0550_RLatLon0.09_PT001H.grib2 2026-04-17 20:40 800K
20260417T18Z_MSC_RDPS_RelativeHumidity_IsbL-0600_RLatLon0.09_PT001H.grib2 2026-04-17 20:40 824K
20260417T18Z_MSC_RDPS_RelativeHumidity_IsbL-0650_RLatLon0.09_PT001H.grib2 2026-04-17 20:40 838K
20260417T18Z_MSC_RDPS_RelativeHumidity_IsbL-0700_RLatLon0.09_PT001H.grib2 2026-04-17 20:40 861K
20260417T18Z_MSC_RDPS_RelativeHumidity_IsbL-0750_RLatLon0.09_PT001H.grib2 2026-04-17 20:40 911K
20260417T18Z_MSC_RDPS_RelativeHumidity_IsbL-0800_RLatLon0.09_PT001H.grib2 2026-04-17 20:40 1.0M
20260417T18Z_MSC_RDPS_RelativeHumidity_IsbL-0850_RLatLon0.09_PT001H.grib2 2026-04-17 20:40 1.0M
20260417T18Z_MSC_RDPS_RelativeHumidity_IsbL-0875_RLatLon0.09_PT001H.grib2 2026-04-17 20:40 1.1M
20260417T18Z_MSC_RDPS_RelativeHumidity_IsbL-0900_RLatLon0.09_PT001H.grib2 2026-04-17 20:40 1.1M
20260417T18Z_MSC_RDPS_RelativeHumidity_IsbL-0925_RLatLon0.09_PT001H.grib2 2026-04-17 20:40 1.1M
20260417T18Z_MSC_RDPS_RelativeHumidity_IsbL-0950_RLatLon0.09_PT001H.grib2 2026-04-17 20:40 1.0M
20260417T18Z_MSC_RDPS_RelativeHumidity_IsbL-0970_RLatLon0.09_PT001H.grib2 2026-04-17 20:40 1.0M
20260417T18Z_MSC_RDPS_RelativeHumidity_IsbL-0985_RLatLon0.09_PT001H.grib2 2026-04-17 20:40 1.0M
20260417T18Z_MSC_RDPS_RelativeHumidity_IsbL-1000_RLatLon0.09_PT001H.grib2 2026-04-17 20:40 1.0M
20260417T18Z_MSC_RDPS_RelativeHumidity_IsbL-1015_RLatLon0.09_PT001H.grib2 2026-04-17 20:40 1.0M
20260417T18Z_MSC_RDPS_Runoff-Accum_Sfc_RLatLon0.09_PT001H.grib2 2026-04-17 20:40 24K
20260417T18Z_MSC_RDPS_SWEATIndex_Sfc_RLatLon0.09_PT001H.grib2 2026-04-17 20:40 2.4M
20260417T18Z_MSC_RDPS_SeeingIndex_EAtm_RLatLon0.09_PT001H.grib2 2026-04-17 20:40 1.0M
20260417T18Z_MSC_RDPS_SensibleHeatNetFlux_Sfc_RLatLon0.09_PT001H.grib2 2026-04-17 20:40 360K
20260417T18Z_MSC_RDPS_ShowalterIndex_IsbL-0500_RLatLon0.09_PT001H.grib2 2026-04-17 20:40 2.6M
20260417T18Z_MSC_RDPS_SkyTransparencyIndex_EAtm_RLatLon0.09_PT001H.grib2 2026-04-17 20:40 692K
20260417T18Z_MSC_RDPS_Snow-Accum1h_Sfc_RLatLon0.09_PT001H.grib2 2026-04-17 20:40 562K
20260417T18Z_MSC_RDPS_Snow-Accum_Sfc_RLatLon0.09_PT001H.grib2 2026-04-17 20:40 670K
20260417T18Z_MSC_RDPS_SnowDensity_Sfc_RLatLon0.09_PT001H.grib2 2026-04-17 20:40 173K
20260417T18Z_MSC_RDPS_SnowDepth_Sfc_RLatLon0.09_PT001H.grib2 2026-04-17 20:40 725K
20260417T18Z_MSC_RDPS_SoilTemp_DBS-0to10cm_RLatLon0.09_PT001H.grib2 2026-04-17 20:40 187K
20260417T18Z_MSC_RDPS_SoilTemp_Sfc_RLatLon0.09_PT001H.grib2 2026-04-17 20:40 281K
20260417T18Z_MSC_RDPS_SoilVolumetricIceContent_Sfc_RLatLon0.09_PT001H.grib2 2026-04-17 20:40 177K
20260417T18Z_MSC_RDPS_SoilVolumetricWaterContent_DBS-0to10cm_RLatLon0.09_PT001H.grib2 2026-04-17 20:40 246K
20260417T18Z_MSC_RDPS_SoilVolumetricWaterContent_DBS-0to1cm_RLatLon0.09_PT001H.grib2 2026-04-17 20:40 327K
20260417T18Z_MSC_RDPS_SpecificHumidity_AGL-120m_RLatLon0.09_PT001H.grib2 2026-04-17 20:40 472K
20260417T18Z_MSC_RDPS_SpecificHumidity_AGL-2m_RLatLon0.09_PT001H.grib2 2026-04-17 20:40 633K
20260417T18Z_MSC_RDPS_SpecificHumidity_AGL-40m_RLatLon0.09_PT001H.grib2 2026-04-17 20:40 475K
20260417T18Z_MSC_RDPS_SpecificHumidity_AGL-80m_RLatLon0.09_PT001H.grib2 2026-04-17 20:40 473K
20260417T18Z_MSC_RDPS_SpecificHumidity_IsbL-0001_RLatLon0.09_PT001H.grib2 2026-04-17 20:40 304K
20260417T18Z_MSC_RDPS_SpecificHumidity_IsbL-0005_RLatLon0.09_PT001H.grib2 2026-04-17 20:40 337K
20260417T18Z_MSC_RDPS_SpecificHumidity_IsbL-0010_RLatLon0.09_PT001H.grib2 2026-04-17 20:40 372K
20260417T18Z_MSC_RDPS_SpecificHumidity_IsbL-0020_RLatLon0.09_PT001H.grib2 2026-04-17 20:40 373K
20260417T18Z_MSC_RDPS_SpecificHumidity_IsbL-0030_RLatLon0.09_PT001H.grib2 2026-04-17 20:40 462K
20260417T18Z_MSC_RDPS_SpecificHumidity_IsbL-0050_RLatLon0.09_PT001H.grib2 2026-04-17 20:40 452K
20260417T18Z_MSC_RDPS_SpecificHumidity_IsbL-0100_RLatLon0.09_PT001H.grib2 2026-04-17 20:40 371K
20260417T18Z_MSC_RDPS_SpecificHumidity_IsbL-0150_RLatLon0.09_PT001H.grib2 2026-04-17 20:40 419K
20260417T18Z_MSC_RDPS_SpecificHumidity_IsbL-0175_RLatLon0.09_PT001H.grib2 2026-04-17 20:40 416K
20260417T18Z_MSC_RDPS_SpecificHumidity_IsbL-0200_RLatLon0.09_PT001H.grib2 2026-04-17 20:40 426K
20260417T18Z_MSC_RDPS_SpecificHumidity_IsbL-0225_RLatLon0.09_PT001H.grib2 2026-04-17 20:40 427K
20260417T18Z_MSC_RDPS_SpecificHumidity_IsbL-0250_RLatLon0.09_PT001H.grib2 2026-04-17 20:40 532K
20260417T18Z_MSC_RDPS_SpecificHumidity_IsbL-0275_RLatLon0.09_PT001H.grib2 2026-04-17 20:40 450K
20260417T18Z_MSC_RDPS_SpecificHumidity_IsbL-0300_RLatLon0.09_PT001H.grib2 2026-04-17 20:40 542K
20260417T18Z_MSC_RDPS_SpecificHumidity_IsbL-0350_RLatLon0.09_PT001H.grib2 2026-04-17 20:40 498K
20260417T18Z_MSC_RDPS_SpecificHumidity_IsbL-0400_RLatLon0.09_PT001H.grib2 2026-04-17 20:40 482K
20260417T18Z_MSC_RDPS_SpecificHumidity_IsbL-0450_RLatLon0.09_PT001H.grib2 2026-04-17 20:40 535K
20260417T18Z_MSC_RDPS_SpecificHumidity_IsbL-0500_RLatLon0.09_PT001H.grib2 2026-04-17 20:40 472K
20260417T18Z_MSC_RDPS_SpecificHumidity_IsbL-0550_RLatLon0.09_PT001H.grib2 2026-04-17 20:40 548K
20260417T18Z_MSC_RDPS_SpecificHumidity_IsbL-0600_RLatLon0.09_PT001H.grib2 2026-04-17 20:40 603K
20260417T18Z_MSC_RDPS_SpecificHumidity_IsbL-0650_RLatLon0.09_PT001H.grib2 2026-04-17 20:40 522K
20260417T18Z_MSC_RDPS_SpecificHumidity_IsbL-0700_RLatLon0.09_PT001H.grib2 2026-04-17 20:40 563K
20260417T18Z_MSC_RDPS_SpecificHumidity_IsbL-0750_RLatLon0.09_PT001H.grib2 2026-04-17 20:40 622K
20260417T18Z_MSC_RDPS_SpecificHumidity_IsbL-0800_RLatLon0.09_PT001H.grib2 2026-04-17 20:40 706K
20260417T18Z_MSC_RDPS_SpecificHumidity_IsbL-0850_RLatLon0.09_PT001H.grib2 2026-04-17 20:40 788K
20260417T18Z_MSC_RDPS_SpecificHumidity_IsbL-0875_RLatLon0.09_PT001H.grib2 2026-04-17 20:40 807K
20260417T18Z_MSC_RDPS_SpecificHumidity_IsbL-0900_RLatLon0.09_PT001H.grib2 2026-04-17 20:40 819K
20260417T18Z_MSC_RDPS_SpecificHumidity_IsbL-0925_RLatLon0.09_PT001H.grib2 2026-04-17 20:40 820K
20260417T18Z_MSC_RDPS_SpecificHumidity_IsbL-0950_RLatLon0.09_PT001H.grib2 2026-04-17 20:40 683K
20260417T18Z_MSC_RDPS_SpecificHumidity_IsbL-0970_RLatLon0.09_PT001H.grib2 2026-04-17 20:40 676K
20260417T18Z_MSC_RDPS_SpecificHumidity_IsbL-0985_RLatLon0.09_PT001H.grib2 2026-04-17 20:40 668K
20260417T18Z_MSC_RDPS_SpecificHumidity_IsbL-1000_RLatLon0.09_PT001H.grib2 2026-04-17 20:40 658K
20260417T18Z_MSC_RDPS_SpecificHumidity_IsbL-1015_RLatLon0.09_PT001H.grib2 2026-04-17 20:40 648K
20260417T18Z_MSC_RDPS_SpecificHumidity_Sfc_RLatLon0.09_PT001H.grib2 2026-04-17 20:40 323K
20260417T18Z_MSC_RDPS_StormRelativeHelicity_EtaL-10000_RLatLon0.09_PT001H.grib2 2026-04-17 20:40 1.1M
20260417T18Z_MSC_RDPS_StormSeverityIndex_EtaL-10000_RLatLon0.09_PT001H.grib2 2026-04-17 20:40 1.1M
20260417T18Z_MSC_RDPS_Thickness_IsbL-0850to0700_RLatLon0.09_PT001H.grib2 2026-04-17 20:40 177K
20260417T18Z_MSC_RDPS_Thickness_IsbL-1000to0500_RLatLon0.09_PT001H.grib2 2026-04-17 20:40 200K
20260417T18Z_MSC_RDPS_Thickness_IsbL-1000to0850_RLatLon0.09_PT001H.grib2 2026-04-17 20:40 188K
20260417T18Z_MSC_RDPS_TotalCloudCover_Sfc_RLatLon0.09_PT001H.grib2 2026-04-17 20:40 639K
20260417T18Z_MSC_RDPS_TotalTotalsIndex_Sfc_RLatLon0.09_PT001H.grib2 2026-04-17 20:40 2.3M
20260417T18Z_MSC_RDPS_UVIndex-ClearSky_Sfc_RLatLon0.09_PT001H.grib2 2026-04-17 20:40 215K
20260417T18Z_MSC_RDPS_UVIndex_Sfc_RLatLon0.09_PT001H.grib2 2026-04-17 20:40 493K
20260417T18Z_MSC_RDPS_UpwardLongwaveRadiationFlux_NTAtm_RLatLon0.09_PT001H.grib2 2026-04-17 20:40 479K
20260417T18Z_MSC_RDPS_UpwardShortwaveRadiationFlux_NTAtm_RLatLon0.09_PT001H.grib2 2026-04-17 20:40 529K
20260417T18Z_MSC_RDPS_VerticalVelocity_IsbL-0250_RLatLon0.09_PT001H.grib2 2026-04-17 20:40 536K
20260417T18Z_MSC_RDPS_VerticalVelocity_IsbL-0500_RLatLon0.09_PT001H.grib2 2026-04-17 20:40 527K
20260417T18Z_MSC_RDPS_VerticalVelocity_IsbL-0700_RLatLon0.09_PT001H.grib2 2026-04-17 20:40 578K
20260417T18Z_MSC_RDPS_VerticalVelocity_IsbL-0850_RLatLon0.09_PT001H.grib2 2026-04-17 20:40 687K
20260417T18Z_MSC_RDPS_VerticalWindShear_EtaL-6500_RLatLon0.09_PT001H.grib2 2026-04-17 20:40 1.2M
20260417T18Z_MSC_RDPS_WindChill_Sfc_RLatLon0.09_PT001H.grib2 2026-04-17 20:40 1.1M
20260417T18Z_MSC_RDPS_WindDir_AGL-10m_RLatLon0.09_PT001H.grib2 2026-04-17 20:40 964K
20260417T18Z_MSC_RDPS_WindDir_AGL-120m_RLatLon0.09_PT001H.grib2 2026-04-17 20:40 606K
20260417T18Z_MSC_RDPS_WindDir_AGL-40m_RLatLon0.09_PT001H.grib2 2026-04-17 20:40 630K
20260417T18Z_MSC_RDPS_WindDir_AGL-80m_RLatLon0.09_PT001H.grib2 2026-04-17 20:40 616K
20260417T18Z_MSC_RDPS_WindDir_IsbL-0001_RLatLon0.09_PT001H.grib2 2026-04-17 20:40 254K
20260417T18Z_MSC_RDPS_WindDir_IsbL-0005_RLatLon0.09_PT001H.grib2 2026-04-17 20:40 315K
20260417T18Z_MSC_RDPS_WindDir_IsbL-0010_RLatLon0.09_PT001H.grib2 2026-04-17 20:40 338K
20260417T18Z_MSC_RDPS_WindDir_IsbL-0020_RLatLon0.09_PT001H.grib2 2026-04-17 20:40 351K
20260417T18Z_MSC_RDPS_WindDir_IsbL-0030_RLatLon0.09_PT001H.grib2 2026-04-17 20:40 350K
20260417T18Z_MSC_RDPS_WindDir_IsbL-0050_RLatLon0.09_PT001H.grib2 2026-04-17 20:40 379K
20260417T18Z_MSC_RDPS_WindDir_IsbL-0100_RLatLon0.09_PT001H.grib2 2026-04-17 20:40 373K
20260417T18Z_MSC_RDPS_WindDir_IsbL-0150_RLatLon0.09_PT001H.grib2 2026-04-17 20:40 361K
20260417T18Z_MSC_RDPS_WindDir_IsbL-0175_RLatLon0.09_PT001H.grib2 2026-04-17 20:40 382K
20260417T18Z_MSC_RDPS_WindDir_IsbL-0200_RLatLon0.09_PT001H.grib2 2026-04-17 20:40 403K
20260417T18Z_MSC_RDPS_WindDir_IsbL-0225_RLatLon0.09_PT001H.grib2 2026-04-17 20:40 415K
20260417T18Z_MSC_RDPS_WindDir_IsbL-0250_RLatLon0.09_PT001H.grib2 2026-04-17 20:40 424K
20260417T18Z_MSC_RDPS_WindDir_IsbL-0275_RLatLon0.09_PT001H.grib2 2026-04-17 20:40 442K
20260417T18Z_MSC_RDPS_WindDir_IsbL-0300_RLatLon0.09_PT001H.grib2 2026-04-17 20:40 443K
20260417T18Z_MSC_RDPS_WindDir_IsbL-0350_RLatLon0.09_PT001H.grib2 2026-04-17 20:40 461K
20260417T18Z_MSC_RDPS_WindDir_IsbL-0400_RLatLon0.09_PT001H.grib2 2026-04-17 20:40 477K
20260417T18Z_MSC_RDPS_WindDir_IsbL-0450_RLatLon0.09_PT001H.grib2 2026-04-17 20:40 494K
20260417T18Z_MSC_RDPS_WindDir_IsbL-0500_RLatLon0.09_PT001H.grib2 2026-04-17 20:40 525K
20260417T18Z_MSC_RDPS_WindDir_IsbL-0550_RLatLon0.09_PT001H.grib2 2026-04-17 20:40 553K
20260417T18Z_MSC_RDPS_WindDir_IsbL-0600_RLatLon0.09_PT001H.grib2 2026-04-17 20:40 583K
20260417T18Z_MSC_RDPS_WindDir_IsbL-0650_RLatLon0.09_PT001H.grib2 2026-04-17 20:40 629K
20260417T18Z_MSC_RDPS_WindDir_IsbL-0700_RLatLon0.09_PT001H.grib2 2026-04-17 20:40 679K
20260417T18Z_MSC_RDPS_WindDir_IsbL-0750_RLatLon0.09_PT001H.grib2 2026-04-17 20:40 735K
20260417T18Z_MSC_RDPS_WindDir_IsbL-0800_RLatLon0.09_PT001H.grib2 2026-04-17 20:40 796K
20260417T18Z_MSC_RDPS_WindDir_IsbL-0850_RLatLon0.09_PT001H.grib2 2026-04-17 20:40 860K
20260417T18Z_MSC_RDPS_WindDir_IsbL-0875_RLatLon0.09_PT001H.grib2 2026-04-17 20:40 883K
20260417T18Z_MSC_RDPS_WindDir_IsbL-0900_RLatLon0.09_PT001H.grib2 2026-04-17 20:40 900K
20260417T18Z_MSC_RDPS_WindDir_IsbL-0925_RLatLon0.09_PT001H.grib2 2026-04-17 20:40 904K
20260417T18Z_MSC_RDPS_WindDir_IsbL-0950_RLatLon0.09_PT001H.grib2 2026-04-17 20:40 905K
20260417T18Z_MSC_RDPS_WindDir_IsbL-0970_RLatLon0.09_PT001H.grib2 2026-04-17 20:40 912K
20260417T18Z_MSC_RDPS_WindDir_IsbL-0985_RLatLon0.09_PT001H.grib2 2026-04-17 20:40 920K
20260417T18Z_MSC_RDPS_WindDir_IsbL-1000_RLatLon0.09_PT001H.grib2 2026-04-17 20:40 936K
20260417T18Z_MSC_RDPS_WindDir_IsbL-1015_RLatLon0.09_PT001H.grib2 2026-04-17 20:40 954K
20260417T18Z_MSC_RDPS_WindGust-Max_AGL-10m_RLatLon0.09_PT001H.grib2 2026-04-17 20:40 938K
20260417T18Z_MSC_RDPS_WindGust-Min_AGL-10m_RLatLon0.09_PT001H.grib2 2026-04-17 20:40 960K
20260417T18Z_MSC_RDPS_WindGust_AGL-10m_RLatLon0.09_PT001H.grib2 2026-04-17 20:40 970K
20260417T18Z_MSC_RDPS_WindSpeed_AGL-10m_RLatLon0.09_PT001H.grib2 2026-04-17 20:40 834K
20260417T18Z_MSC_RDPS_WindSpeed_AGL-120m_RLatLon0.09_PT001H.grib2 2026-04-17 20:40 528K
20260417T18Z_MSC_RDPS_WindSpeed_AGL-40m_RLatLon0.09_PT001H.grib2 2026-04-17 20:40 534K
20260417T18Z_MSC_RDPS_WindSpeed_AGL-80m_RLatLon0.09_PT001H.grib2 2026-04-17 20:40 530K
20260417T18Z_MSC_RDPS_WindSpeed_IsbL-0001_RLatLon0.09_PT001H.grib2 2026-04-17 20:40 245K
20260417T18Z_MSC_RDPS_WindSpeed_IsbL-0005_RLatLon0.09_PT001H.grib2 2026-04-17 20:40 326K
20260417T18Z_MSC_RDPS_WindSpeed_IsbL-0010_RLatLon0.09_PT001H.grib2 2026-04-17 20:40 334K
20260417T18Z_MSC_RDPS_WindSpeed_IsbL-0020_RLatLon0.09_PT001H.grib2 2026-04-17 20:40 319K
20260417T18Z_MSC_RDPS_WindSpeed_IsbL-0030_RLatLon0.09_PT001H.grib2 2026-04-17 20:40 311K
20260417T18Z_MSC_RDPS_WindSpeed_IsbL-0050_RLatLon0.09_PT001H.grib2 2026-04-17 20:40 344K
20260417T18Z_MSC_RDPS_WindSpeed_IsbL-0100_RLatLon0.09_PT001H.grib2 2026-04-17 20:40 426K
20260417T18Z_MSC_RDPS_WindSpeed_IsbL-0150_RLatLon0.09_PT001H.grib2 2026-04-17 20:40 352K
20260417T18Z_MSC_RDPS_WindSpeed_IsbL-0175_RLatLon0.09_PT001H.grib2 2026-04-17 20:40 401K
20260417T18Z_MSC_RDPS_WindSpeed_IsbL-0200_RLatLon0.09_PT001H.grib2 2026-04-17 20:40 421K
20260417T18Z_MSC_RDPS_WindSpeed_IsbL-0225_RLatLon0.09_PT001H.grib2 2026-04-17 20:40 433K
20260417T18Z_MSC_RDPS_WindSpeed_IsbL-0250_RLatLon0.09_PT001H.grib2 2026-04-17 20:40 440K
20260417T18Z_MSC_RDPS_WindSpeed_IsbL-0275_RLatLon0.09_PT001H.grib2 2026-04-17 20:40 455K
20260417T18Z_MSC_RDPS_WindSpeed_IsbL-0300_RLatLon0.09_PT001H.grib2 2026-04-17 20:40 451K
20260417T18Z_MSC_RDPS_WindSpeed_IsbL-0350_RLatLon0.09_PT001H.grib2 2026-04-17 20:40 459K
20260417T18Z_MSC_RDPS_WindSpeed_IsbL-0400_RLatLon0.09_PT001H.grib2 2026-04-17 20:40 443K
20260417T18Z_MSC_RDPS_WindSpeed_IsbL-0450_RLatLon0.09_PT001H.grib2 2026-04-17 20:40 441K
20260417T18Z_MSC_RDPS_WindSpeed_IsbL-0500_RLatLon0.09_PT001H.grib2 2026-04-17 20:40 556K
20260417T18Z_MSC_RDPS_WindSpeed_IsbL-0550_RLatLon0.09_PT001H.grib2 2026-04-17 20:40 561K
20260417T18Z_MSC_RDPS_WindSpeed_IsbL-0600_RLatLon0.09_PT001H.grib2 2026-04-17 20:40 575K
20260417T18Z_MSC_RDPS_WindSpeed_IsbL-0650_RLatLon0.09_PT001H.grib2 2026-04-17 20:40 597K
20260417T18Z_MSC_RDPS_WindSpeed_IsbL-0700_RLatLon0.09_PT001H.grib2 2026-04-17 20:40 621K
20260417T18Z_MSC_RDPS_WindSpeed_IsbL-0750_RLatLon0.09_PT001H.grib2 2026-04-17 20:40 652K
20260417T18Z_MSC_RDPS_WindSpeed_IsbL-0800_RLatLon0.09_PT001H.grib2 2026-04-17 20:40 705K
20260417T18Z_MSC_RDPS_WindSpeed_IsbL-0850_RLatLon0.09_PT001H.grib2 2026-04-17 20:40 760K
20260417T18Z_MSC_RDPS_WindSpeed_IsbL-0875_RLatLon0.09_PT001H.grib2 2026-04-17 20:40 781K
20260417T18Z_MSC_RDPS_WindSpeed_IsbL-0900_RLatLon0.09_PT001H.grib2 2026-04-17 20:40 798K
20260417T18Z_MSC_RDPS_WindSpeed_IsbL-0925_RLatLon0.09_PT001H.grib2 2026-04-17 20:40 853K
20260417T18Z_MSC_RDPS_WindSpeed_IsbL-0950_RLatLon0.09_PT001H.grib2 2026-04-17 20:40 851K
20260417T18Z_MSC_RDPS_WindSpeed_IsbL-0970_RLatLon0.09_PT001H.grib2 2026-04-17 20:40 848K
20260417T18Z_MSC_RDPS_WindSpeed_IsbL-0985_RLatLon0.09_PT001H.grib2 2026-04-17 20:40 845K
20260417T18Z_MSC_RDPS_WindSpeed_IsbL-1000_RLatLon0.09_PT001H.grib2 2026-04-17 20:40 842K
20260417T18Z_MSC_RDPS_WindSpeed_IsbL-1015_RLatLon0.09_PT001H.grib2 2026-04-17 20:40 834K
20260417T18Z_MSC_RDPS_WindU_AGL-10m_RLatLon0.09_PT001H.grib2 2026-04-17 20:40 431K
20260417T18Z_MSC_RDPS_WindU_AGL-120m_RLatLon0.09_PT001H.grib2 2026-04-17 20:40 413K
20260417T18Z_MSC_RDPS_WindU_AGL-40m_RLatLon0.09_PT001H.grib2 2026-04-17 20:40 533K
20260417T18Z_MSC_RDPS_WindU_AGL-80m_RLatLon0.09_PT001H.grib2 2026-04-17 20:40 415K
20260417T18Z_MSC_RDPS_WindU_IsbL-0001_RLatLon0.09_PT001H.grib2 2026-04-17 20:40 287K
20260417T18Z_MSC_RDPS_WindU_IsbL-0005_RLatLon0.09_PT001H.grib2 2026-04-17 20:40 293K
20260417T18Z_MSC_RDPS_WindU_IsbL-0010_RLatLon0.09_PT001H.grib2 2026-04-17 20:40 300K
20260417T18Z_MSC_RDPS_WindU_IsbL-0020_RLatLon0.09_PT001H.grib2 2026-04-17 20:40 244K
20260417T18Z_MSC_RDPS_WindU_IsbL-0030_RLatLon0.09_PT001H.grib2 2026-04-17 20:40 244K
20260417T18Z_MSC_RDPS_WindU_IsbL-0050_RLatLon0.09_PT001H.grib2 2026-04-17 20:40 341K
20260417T18Z_MSC_RDPS_WindU_IsbL-0100_RLatLon0.09_PT001H.grib2 2026-04-17 20:40 325K
20260417T18Z_MSC_RDPS_WindU_IsbL-0150_RLatLon0.09_PT001H.grib2 2026-04-17 20:40 372K
20260417T18Z_MSC_RDPS_WindU_IsbL-0175_RLatLon0.09_PT001H.grib2 2026-04-17 20:40 396K
20260417T18Z_MSC_RDPS_WindU_IsbL-0200_RLatLon0.09_PT001H.grib2 2026-04-17 20:40 416K
20260417T18Z_MSC_RDPS_WindU_IsbL-0225_RLatLon0.09_PT001H.grib2 2026-04-17 20:40 426K
20260417T18Z_MSC_RDPS_WindU_IsbL-0250_RLatLon0.09_PT001H.grib2 2026-04-17 20:40 335K
20260417T18Z_MSC_RDPS_WindU_IsbL-0275_RLatLon0.09_PT001H.grib2 2026-04-17 20:40 346K
20260417T18Z_MSC_RDPS_WindU_IsbL-0300_RLatLon0.09_PT001H.grib2 2026-04-17 20:40 341K
20260417T18Z_MSC_RDPS_WindU_IsbL-0350_RLatLon0.09_PT001H.grib2 2026-04-17 20:40 348K
20260417T18Z_MSC_RDPS_WindU_IsbL-0400_RLatLon0.09_PT001H.grib2 2026-04-17 20:40 447K
20260417T18Z_MSC_RDPS_WindU_IsbL-0450_RLatLon0.09_PT001H.grib2 2026-04-17 20:40 446K
20260417T18Z_MSC_RDPS_WindU_IsbL-0500_RLatLon0.09_PT001H.grib2 2026-04-17 20:40 449K
20260417T18Z_MSC_RDPS_WindU_IsbL-0550_RLatLon0.09_PT001H.grib2 2026-04-17 20:40 454K
20260417T18Z_MSC_RDPS_WindU_IsbL-0600_RLatLon0.09_PT001H.grib2 2026-04-17 20:40 465K
20260417T18Z_MSC_RDPS_WindU_IsbL-0650_RLatLon0.09_PT001H.grib2 2026-04-17 20:40 485K
20260417T18Z_MSC_RDPS_WindU_IsbL-0700_RLatLon0.09_PT001H.grib2 2026-04-17 20:40 490K
20260417T18Z_MSC_RDPS_WindU_IsbL-0750_RLatLon0.09_PT001H.grib2 2026-04-17 20:40 519K
20260417T18Z_MSC_RDPS_WindU_IsbL-0800_RLatLon0.09_PT001H.grib2 2026-04-17 20:40 566K
20260417T18Z_MSC_RDPS_WindU_IsbL-0850_RLatLon0.09_PT001H.grib2 2026-04-17 20:40 624K
20260417T18Z_MSC_RDPS_WindU_IsbL-0875_RLatLon0.09_PT001H.grib2 2026-04-17 20:40 641K
20260417T18Z_MSC_RDPS_WindU_IsbL-0900_RLatLon0.09_PT001H.grib2 2026-04-17 20:40 654K
20260417T18Z_MSC_RDPS_WindU_IsbL-0925_RLatLon0.09_PT001H.grib2 2026-04-17 20:40 658K
20260417T18Z_MSC_RDPS_WindU_IsbL-0950_RLatLon0.09_PT001H.grib2 2026-04-17 20:40 648K
20260417T18Z_MSC_RDPS_WindU_IsbL-0970_RLatLon0.09_PT001H.grib2 2026-04-17 20:40 648K
20260417T18Z_MSC_RDPS_WindU_IsbL-0985_RLatLon0.09_PT001H.grib2 2026-04-17 20:40 786K
20260417T18Z_MSC_RDPS_WindU_IsbL-1000_RLatLon0.09_PT001H.grib2 2026-04-17 20:40 784K
20260417T18Z_MSC_RDPS_WindU_IsbL-1015_RLatLon0.09_PT001H.grib2 2026-04-17 20:40 778K
20260417T18Z_MSC_RDPS_WindV_AGL-10m_RLatLon0.09_PT001H.grib2 2026-04-17 20:40 429K
20260417T18Z_MSC_RDPS_WindV_AGL-120m_RLatLon0.09_PT001H.grib2 2026-04-17 20:40 525K
20260417T18Z_MSC_RDPS_WindV_AGL-40m_RLatLon0.09_PT001H.grib2 2026-04-17 20:40 529K
20260417T18Z_MSC_RDPS_WindV_AGL-80m_RLatLon0.09_PT001H.grib2 2026-04-17 20:40 526K
20260417T18Z_MSC_RDPS_WindV_IsbL-0001_RLatLon0.09_PT001H.grib2 2026-04-17 20:40 206K
20260417T18Z_MSC_RDPS_WindV_IsbL-0005_RLatLon0.09_PT001H.grib2 2026-04-17 20:40 291K
20260417T18Z_MSC_RDPS_WindV_IsbL-0010_RLatLon0.09_PT001H.grib2 2026-04-17 20:40 298K
20260417T18Z_MSC_RDPS_WindV_IsbL-0020_RLatLon0.09_PT001H.grib2 2026-04-17 20:40 341K
20260417T18Z_MSC_RDPS_WindV_IsbL-0030_RLatLon0.09_PT001H.grib2 2026-04-17 20:40 304K
20260417T18Z_MSC_RDPS_WindV_IsbL-0050_RLatLon0.09_PT001H.grib2 2026-04-17 20:40 336K
20260417T18Z_MSC_RDPS_WindV_IsbL-0100_RLatLon0.09_PT001H.grib2 2026-04-17 20:40 318K
20260417T18Z_MSC_RDPS_WindV_IsbL-0150_RLatLon0.09_PT001H.grib2 2026-04-17 20:40 367K
20260417T18Z_MSC_RDPS_WindV_IsbL-0175_RLatLon0.09_PT001H.grib2 2026-04-17 20:40 392K
20260417T18Z_MSC_RDPS_WindV_IsbL-0200_RLatLon0.09_PT001H.grib2 2026-04-17 20:40 321K
20260417T18Z_MSC_RDPS_WindV_IsbL-0225_RLatLon0.09_PT001H.grib2 2026-04-17 20:40 330K
20260417T18Z_MSC_RDPS_WindV_IsbL-0250_RLatLon0.09_PT001H.grib2 2026-04-17 20:40 334K
20260417T18Z_MSC_RDPS_WindV_IsbL-0275_RLatLon0.09_PT001H.grib2 2026-04-17 20:40 346K
20260417T18Z_MSC_RDPS_WindV_IsbL-0300_RLatLon0.09_PT001H.grib2 2026-04-17 20:40 341K
20260417T18Z_MSC_RDPS_WindV_IsbL-0350_RLatLon0.09_PT001H.grib2 2026-04-17 20:40 346K
20260417T18Z_MSC_RDPS_WindV_IsbL-0400_RLatLon0.09_PT001H.grib2 2026-04-17 20:40 347K
20260417T18Z_MSC_RDPS_WindV_IsbL-0450_RLatLon0.09_PT001H.grib2 2026-04-17 20:40 445K
20260417T18Z_MSC_RDPS_WindV_IsbL-0500_RLatLon0.09_PT001H.grib2 2026-04-17 20:40 446K
20260417T18Z_MSC_RDPS_WindV_IsbL-0550_RLatLon0.09_PT001H.grib2 2026-04-17 20:40 452K
20260417T18Z_MSC_RDPS_WindV_IsbL-0600_RLatLon0.09_PT001H.grib2 2026-04-17 20:40 463K
20260417T18Z_MSC_RDPS_WindV_IsbL-0650_RLatLon0.09_PT001H.grib2 2026-04-17 20:40 482K
20260417T18Z_MSC_RDPS_WindV_IsbL-0700_RLatLon0.09_PT001H.grib2 2026-04-17 20:40 487K
20260417T18Z_MSC_RDPS_WindV_IsbL-0750_RLatLon0.09_PT001H.grib2 2026-04-17 20:40 514K
20260417T18Z_MSC_RDPS_WindV_IsbL-0800_RLatLon0.09_PT001H.grib2 2026-04-17 20:40 561K
20260417T18Z_MSC_RDPS_WindV_IsbL-0850_RLatLon0.09_PT001H.grib2 2026-04-17 20:40 611K
20260417T18Z_MSC_RDPS_WindV_IsbL-0875_RLatLon0.09_PT001H.grib2 2026-04-17 20:40 629K
20260417T18Z_MSC_RDPS_WindV_IsbL-0900_RLatLon0.09_PT001H.grib2 2026-04-17 20:40 642K
20260417T18Z_MSC_RDPS_WindV_IsbL-0925_RLatLon0.09_PT001H.grib2 2026-04-17 20:40 646K
20260417T18Z_MSC_RDPS_WindV_IsbL-0950_RLatLon0.09_PT001H.grib2 2026-04-17 20:40 644K
20260417T18Z_MSC_RDPS_WindV_IsbL-0970_RLatLon0.09_PT001H.grib2 2026-04-17 20:40 644K
20260417T18Z_MSC_RDPS_WindV_IsbL-0985_RLatLon0.09_PT001H.grib2 2026-04-17 20:40 780K
20260417T18Z_MSC_RDPS_WindV_IsbL-1000_RLatLon0.09_PT001H.grib2 2026-04-17 20:40 778K
20260417T18Z_MSC_RDPS_WindV_IsbL-1015_RLatLon0.09_PT001H.grib2 2026-04-17 20:40 771K